Helicity
159 190 145 96 74 55 42 24 21 24 51 60 72 80 88 106 85 79 63 72 75 42 60 112 98 67 14 -16 35 124 130 184 176 126 74 30 16 67 186 202 290 281 212 179 149 104 113
166 181 151 114 78 50 41 21 12 20 54 76 79 86 92 112 95 89 72 84 87 58 116 179 218 168 -21 -37 64 103 119 122 228 184 169 91 93 42 84 63 64 44 87 76 68 89 83
139 185 165 112 81 54 44 33 -0 15 49 86 99 91 91 118 99 94 80 86 94 72 116 155 132 87 79 22 67 75 81 117 123 168 140 121 57 11 73 75 -7 -5 50 21 13 3 50
145 186 195 129 90 66 68 50 -5 -23 63 103 113 101 93 122 101 97 84 89 103 97 107 120 103 68 21 79 58 20 76 108 69 146 121 52 46 55 40 3 -44 -33 -32 -1 -22 -1 4
237 168 179 145 97 96 93 71 41 19 104 112 131 112 97 124 107 91 79 81 100 93 107 140 94 63 12 52 34 23 44 80 119 80 87 58 75 -27 -55 -77 -70 -23 -11 30 -13 8 18
134 123 152 146 113 107 90 71 22 30 113 115 148 116 105 124 113 95 78 72 128 133 115 90 102 58 45 89 101 68 124 177 94 76 38 1 -3 -11 -1 9 29 19 61 45 18 53 149
134 123 129 135 123 91 77 58 41 54 89 125 153 116 119 127 117 76 88 133 122 139 198 101 44 64 5 60 106 116 169 192 69 3 42 -5 119 74 146 146 52 135 100 59 40 53 74
260 207 119 151 124 94 60 57 58 60 75 130 149 124 130 126 116 110 160 190 131 80 121 57 91 71 69 85 119 228 187 70 50 32 -19 69 129 68 67 122 225 83 102 62 49 56 103
260 164 165 83 116 100 69 66 96 75 112 126 148 134 137 135 128 161 228 181 117 132 113 134 74 34 53 66 128 271 218 99 72 123 58 50 44 42 51 145 164 243 145 95 51 26 42
252 260 311 172 97 104 82 67 75 54 99 123 138 139 145 155 149 171 175 84 79 115 86 81 84 39 63 61 113 199 173 64 40 63 87 88 47 47 71 98 120 81 60 61 47 97 82
313 293 296 218 116 117 90 66 75 82 92 110 133 140 148 158 210 117 99 37 103 100 119 31 71 44 63 91 18 123 133 63 83 66 30 50 99 69 94 74 71 70 37 56 60 87 112
378 350 336 193 136 124 103 59 63 85 83 115 132 134 146 175 155 109 83 120 117 143 94 63 92 53 73 73 66 83 94 119 76 163 137 105 53 70 71 71 74 61 60 57 61 95 112
368 327 316 213 191 200 100 83 90 86 100 118 121 127 148 253 147 120 125 179 167 126 60 56 94 73 71 78 83 38 84 132 101 123 117 109 104 81 79 63 67 68 107 124 141 130 108
426 328 320 298 250 208 99 95 115 85 107 135 117 138 194 225 160 126 183 207 151 74 78 37 72 89 109 84 103 48 77 112 132 116 86 92 68 104 80 105 82 106 111 135 146 123 124
469 408 409 335 402 369 115 104 69 110 116 120 136 225 200 190 168 187 236 163 100 80 87 81 88 95 130 138 127 101 59 87 124 119 106 102 98 80 117 94 87 104 133 89 145 100 132
430 500 456 387 426 289 245 73 80 103 113 111 213 223 177 140 168 230 222 151 136 150 94 122 141 84 118 112 109 100 95 59 89 124 129 106 131 84 93 81 121 119 105 146 134 171 142
473 578 555 416 364 243 181 117 87 101 92 129 221 200 142 119 186 235 147 174 175 149 76 64 97 65 94 121 90 106 91 67 73 117 136 135 128 117 121 110 118 132 157 146 156 179 173
586 666 483 338 369 335 208 123 104 123 101 191 235 202 172 188 263 179 137 176 181 125 134 130 164 115 106 110 113 148 94 69 79 115 141 121 144 173 142 119 133 131 128 156 189 143 152
661 535 463 391 435 406 248 160 129 115 89 303 305 221 251 272 224 229 154 200 157 159 151 151 150 182 174 126 195 220 194 83 85 138 119 113 153 200 143 108 130 166 159 171 182 161 133
732 507 505 430 397 326 258 102 129 75 64 339 312 280 334 257 215 192 198 192 173 159 125 134 111 209 188 263 216 228 211 114 161 123 152 143 168 162 148 123 138 144 143 165 207 173 131
702 487 564 431 337 249 182 183 109 110 141 336 344 251 271 203 210 173 202 176 184 188 154 166 163 157 210 256 257 202 193 209 184 128 157 145 159 166 122 131 138 125 141 177 186 160 148
696 507 596 383 333 232 159 100 155 123 225 359 271 223 259 106 223 153 203 164 166 191 169 151 124 110 194 211 173 192 209 160 142 137 152 138 155 144 133 110 107 99 126 179 157 121 95
675 688 512 332 262 215 117 170 163 136 261 387 301 253 240 143 195 213 216 212 149 157 110 107 100 184 306 173 168 146 136 84 118 146 154 149 163 164 198 241 194 129 111 127 196 163 167
633 627 437 283 237 174 142 200 125 143 274 350 329 262 249 181 126 154 173 174 111 114 127 145 113 284 284 362 437 377 320 179 104 79 143 170 174 176 173 191 225 177 109 116 101 86 107
651 503 322 296 259 169 203 191 119 136 292 398 365 276 225 170 99 134 112 166 278 370 268 244 271 267 301 407 308 296 281 226 158 59 128 134 154 177 198 181 154 190 219 229 121 148 164
573 375 313 314 274 239 189 187 151 183 289 398 327 266 229 198 239 247 161 224 374 393 399 297 301 337 337 256 250 229 191 175 149 164 157 125 113 179 197 224 193 179 162 166 128 172 231
426 336 331 277 278 215 174 186 180 227 308 326 279 269 216 204 326 285 220 275 289 387 362 370 410 372 257 249 250 213 209 170 193 187 157 200 189 180 208 227 159 150 220 150 162 179 228
387 317 299 267 282 150 202 188 199 227 269 307 304 260 190 217 399 369 370 418 340 348 347 257 398 302 241 217 200 194 222 136 188 133 130 182 207 167 225 262 155 123 153 185 221 296 244
336 337 295 286 293 156 183 190 232 221 260 313 287 285 204 240 309 370 422 484 342 245 269 287 234 165 135 200 166 199 244 204 175 169 122 143 155 154 172 152 90 127 209 243 285 308 305
Wind_Speed
26 47 41 39 34 31 30 29 28 28 36 35 33 34 34 32 30 29 28 29 29 27 28 26 25 24 23 32 22 17 18 19 13 10 43 6 13 11 21 29 27 25 22 30 36 36 33
31 31 45 40 38 35 33 33 28 26 41 40 35 35 35 33 31 30 28 29 29 27 27 24 22 23 32 40 21 17 14 11 7 10 30 36 21 30 16 13 14 34 40 36 35 38 35
35 30 33 46 43 41 36 36 34 28 44 44 39 36 36 35 31 31 28 29 29 29 30 27 26 20 21 30 22 16 19 15 18 17 32 28 27 43 35 42 57 56 49 48 45 41 43
36 32 30 49 48 47 43 40 37 31 46 46 43 38 38 36 32 32 29 29 30 31 31 29 28 21 34 26 22 16 15 17 25 26 27 38 27 34 47 58 60 54 41 31 34 33 29
41 35 31 41 51 48 44 41 40 50 46 48 46 41 39 38 34 33 29 31 33 33 33 31 27 28 35 26 18 20 24 32 29 32 35 37 41 66 62 61 51 43 42 39 37 31 29
45 36 31 35 48 47 44 41 36 36 48 48 48 44 41 39 36 33 30 29 31 33 36 34 36 25 28 31 28 29 28 33 45 52 50 55 50 51 46 39 30 42 44 39 37 36 35
50 40 34 29 38 46 42 42 36 41 51 50 51 46 43 40 36 29 25 26 30 24 18 17 18 21 21 15 11 28 26 25 46 47 50 36 38 34 22 21 41 37 34 32 29 30 28
48 47 37 35 31 36 44 43 40 54 54 52 53 47 44 40 37 30 27 28 25 22 15 18 16 13 16 28 16 15 22 29 31 37 38 35 36 28 37 35 33 34 34 32 31 28 30
50 53 45 39 34 34 39 43 43 54 53 55 54 48 44 39 37 30 30 26 24 21 22 26 19 16 16 16 17 18 18 33 32 32 31 33 33 35 32 33 32 37 35 35 29 27 30
56 50 44 46 38 35 35 37 38 49 55 57 56 49 43 38 36 33 35 25 23 26 28 33 31 17 19 15 19 24 24 26 28 32 33 34 32 32 32 32 36 27 35 33 32 28 30
59 54 43 44 46 39 35 35 38 46 53 59 56 50 44 41 41 40 29 21 25 28 21 23 21 19 17 21 15 25 29 25 23 25 26 28 30 30 31 32 37 29 31 35 35 34 38
63 57 49 48 46 39 37 32 34 42 50 58 56 49 43 42 39 37 23 23 25 36 27 25 21 13 10 15 17 21 21 26 27 30 33 28 31 33 30 31 34 29 30 28 29 31 31
67 60 56 50 43 39 41 36 36 38 45 56 56 49 45 43 41 30 27 26 36 39 22 22 17 5 4 10 14 12 16 18 22 23 25 28 32 30 33 29 28 31 34 32 33 32 32
67 64 58 53 45 41 41 43 39 36 45 57 56 47 49 38 32 32 30 37 43 38 25 21 8 5 8 4 12 9 14 20 24 27 18 23 23 37 37 31 31 33 33 29 34 34 37
67 64 59 56 48 44 43 43 40 33 44 59 52 48 45 40 32 36 39 54 46 39 31 12 6 4 2 16 16 13 13 18 20 26 22 24 28 29 35 35 34 31 32 30 31 30 37
69 67 64 58 51 46 46 40 42 33 44 61 54 49 48 38 36 36 48 52 43 36 17 12 18 16 9 5 11 8 16 23 19 19 25 27 27 25 28 29 38 32 27 33 34 37 38
71 70 64 61 56 52 47 44 42 40 43 62 53 53 49 37 36 45 62 51 44 37 24 19 28 13 9 6 9 7 17 19 18 14 24 25 28 28 29 29 26 29 29 32 29 30 34
73 73 65 62 59 59 52 48 44 46 45 52 54 51 44 38 55 56 59 48 40 36 29 28 30 25 11 5 7 12 15 20 14 13 20 24 28 28 29 31 34 32 26 25 29 31 28
75 72 67 64 59 59 60 48 51 46 46 44 47 44 41 48 63 64 51 49 41 35 30 30 30 27 4 8 18 14 19 17 12 18 19 17 28 29 33 34 31 29 29 25 27 30 26
77 71 65 64 60 59 57 58 54 54 50 43 47 48 49 60 52 58 56 53 46 29 31 30 28 29 16 18 19 16 17 16 16 20 23 21 27 29 30 32 29 29 23 21 23 28 30
75 74 67 64 60 58 57 62 64 61 56 45 49 52 51 68 64 61 50 47 44 43 36 28 30 33 27 26 19 20 17 15 22 20 21 25 28 30 29 30 28 30 26 18 17 22 26
75 72 66 66 58 57 59 65 65 58 48 49 48 47 52 44 60 59 57 49 45 40 34 36 33 32 27 24 25 13 14 21 22 17 19 26 30 31 35 27 27 32 24 18 18 22 23
74 70 67 65 60 59 62 65 61 57 45 46 50 43 46 52 54 60 61 45 45 36 40 36 29 27 26 25 24 5 11 6 15 14 17 24 27 31 36 39 43 42 28 20 20 19 20
77 69 67 63 61 65 66 60 59 56 45 47 47 45 46 50 57 57 53 46 41 37 33 36 31 26 12 13 16 20 24 20 17 13 16 21 27 32 37 41 46 35 31 28 32 26 20
74 67 68 65 65 65 65 61 58 54 42 39 43 45 43 45 53 56 46 46 30 25 29 29 28 7 0 16 22 30 35 31 31 17 16 16 26 33 38 38 44 37 34 32 30 34 39
70 69 66 66 68 66 63 63 60 52 39 39 41 40 42 34 44 52 45 39 36 33 29 19 8 15 18 26 29 35 32 29 27 22 22 15 21 31 36 44 47 35 27 32 31 30 43
71 68 66 68 65 63 62 62 61 49 41 45 39 37 37 33 40 41 45 40 31 30 29 25 25 26 25 30 34 34 35 23 24 22 22 23 28 31 36 42 41 34 30 33 34 33 43
70 65 65 67 65 62 60 59 59 46 43 41 33 33 34 30 27 28 31 35 31 29 29 23 26 35 29 31 32 33 33 25 27 22 25 23 28 34 33 42 46 35 27 32 30 40 47
68 63 64 66 64 61 59 55 53 41 39 38 35 26 21 22 22 25 21 23 29 33 23 27 33 26 24 29 30 30 32 29 27 31 19 32 27 31 28 33 30 34 28 32 37 42 50
Wind_Direction
212 250 253 255 258 263 267 268 273 276 265 266 269 267 263 265 272 267 278 272 239 254 234 236 244 245 192 142 154 230 275 280 269 221 127 18 40 39 64 72 59 60 53 53 60 53 46
221 231 250 251 253 257 259 260 266 274 258 257 264 263 261 262 268 262 273 265 238 238 233 241 253 246 161 121 203 221 238 236 231 184 147 141 50 69 53 13 332 78 73 65 57 58 46
218 222 240 248 249 251 252 255 260 267 256 252 256 260 258 260 267 258 266 264 241 234 237 251 271 258 333 158 203 235 198 192 188 177 157 166 172 153 149 65 91 93 81 79 84 80 89
216 222 226 243 245 247 248 250 257 268 253 247 250 256 254 257 264 255 263 261 242 235 232 248 261 256 158 196 215 237 224 192 172 169 163 157 154 157 142 92 108 102 90 43 123 126 102
221 225 222 239 243 244 247 249 253 249 253 245 247 251 251 254 259 252 259 257 249 232 224 240 234 200 162 224 230 211 193 163 168 167 161 159 145 104 107 111 119 127 92 76 65 73 78
211 218 220 231 239 240 245 246 250 256 244 244 243 247 248 252 253 250 256 259 253 250 230 227 214 222 210 181 182 184 189 176 146 129 133 115 114 107 99 119 143 120 96 79 87 42 44
216 215 218 212 231 237 239 243 247 248 241 240 240 244 245 247 248 253 259 269 255 271 314 326 316 26 40 246 290 191 196 196 146 134 110 66 52 107 188 174 62 62 46 51 38 29 43
196 214 211 206 210 230 236 238 242 237 240 238 237 241 242 243 244 249 262 259 270 269 283 339 331 350 284 238 251 282 239 122 47 63 63 47 38 23 19 5 18 49 57 49 28 25 22
211 197 201 201 213 221 231 235 240 239 236 234 235 239 239 240 241 245 258 268 282 276 265 257 303 318 322 351 279 257 338 57 43 33 40 53 63 23 27 4 11 7 12 6 23 9 6
205 202 209 208 209 215 222 230 234 233 232 231 232 236 237 238 239 245 254 269 278 285 262 251 254 317 313 15 299 288 335 38 41 55 43 29 26 34 27 25 6 22 7 6 3 7 3
197 201 202 205 208 216 217 220 230 231 233 230 230 233 232 234 245 237 261 269 270 278 273 264 273 296 310 309 47 302 323 14 30 13 24 28 11 24 23 14 6 21 11 360 354 353 350
199 204 201 191 190 200 208 208 223 228 233 228 229 230 230 239 243 242 257 262 271 253 273 267 271 281 310 331 336 326 354 23 35 14 21 28 26 16 20 28 23 34 19 19 12 3 357
199 199 200 196 191 201 205 212 222 229 232 226 227 227 224 245 238 241 248 248 244 255 260 270 263 240 312 319 335 351 3 18 358 5 3 13 10 28 11 15 25 15 10 10 5 2 357
198 193 194 201 194 198 197 215 221 223 226 222 225 224 228 240 243 238 238 236 245 255 254 273 169 155 289 13 338 45 354 344 348 355 28 6 17 351 359 13 13 10 11 12 358 359 357
191 192 197 197 188 192 187 210 216 216 222 219 220 224 227 235 244 236 227 232 246 251 254 234 186 187 161 294 312 328 354 349 353 350 3 1 360 7 2 4 10 13 12 13 7 1 350
194 194 197 188 188 182 189 198 212 210 217 212 217 221 227 234 240 233 230 237 248 263 252 197 264 263 264 267 315 327 326 339 342 1 1 355 1 3 4 12 3 10 22 6 4 355 350
193 192 192 186 183 184 190 201 204 209 209 211 215 221 229 233 235 230 229 239 249 261 252 235 272 260 266 253 313 327 334 344 354 9 359 359 356 356 358 0 8 8 6 6 8 2 352
192 190 189 186 183 189 191 201 200 205 203 213 217 226 229 225 223 231 232 239 254 253 259 266 275 271 270 174 310 325 325 337 14 37 356 359 358 355 351 357 358 1 4 4 355 352 354
189 191 189 184 186 191 195 194 198 195 188 214 217 228 230 227 226 226 235 242 249 251 258 262 273 280 287 280 307 326 331 360 45 5 355 10 348 351 351 348 352 352 355 2 4 357 347
188 185 184 180 182 190 191 184 196 196 194 221 220 224 226 227 237 225 230 236 241 253 259 269 271 282 280 284 320 320 325 346 358 352 359 2 342 342 340 351 1 355 353 353 351 345 343
186 183 179 180 183 187 186 196 202 201 208 225 226 229 226 223 228 225 232 234 237 244 259 268 272 271 276 283 303 317 328 331 338 346 347 345 337 338 343 347 349 347 346 338 327 332 332
178 177 177 181 184 185 191 195 199 195 201 226 223 227 226 236 225 225 231 232 237 245 251 258 273 270 277 282 298 303 313 311 327 331 336 341 337 342 340 341 338 332 327 320 312 318 309
183 181 176 182 189 189 190 195 194 189 204 225 228 232 225 226 224 226 230 236 237 245 256 261 270 275 288 293 313 344 346 7 348 331 333 337 338 340 337 344 341 334 329 314 315 318 314
184 177 178 182 190 190 191 191 189 188 212 226 228 227 229 229 226 230 230 238 239 244 255 265 261 272 305 15 28 355 344 353 353 345 343 339 339 339 337 339 333 347 355 2 352 347 335
185 180 180 185 190 190 190 191 188 185 212 228 232 229 233 233 230 232 232 233 241 245 258 270 274 221 204 315 312 310 310 318 319 327 332 344 339 336 334 333 335 345 346 346 347 349 348
178 180 180 190 189 190 191 195 193 195 212 232 231 236 236 226 236 240 230 234 230 241 258 271 267 296 289 295 299 295 302 311 318 325 330 339 340 334 333 332 332 346 350 348 347 332 343
175 181 184 186 186 187 190 194 195 198 214 229 233 239 236 238 247 246 239 231 241 244 253 256 264 283 294 288 289 296 300 316 311 316 316 322 326 321 327 329 333 337 348 344 330 332 340
178 179 181 186 187 187 189 192 192 197 218 227 232 243 238 243 255 260 254 245 241 245 243 252 267 278 285 285 290 296 303 306 314 317 323 315 323 327 326 327 325 343 343 333 341 341 337
174 174 179 180 184 187 188 187 186 201 213 225 226 240 243 244 243 257 268 280 266 263 255 254 278 282 284 290 294 303 306 311 313 313 319 319 324 330 330 335 343 344 359 354 345 339 336